Location: Ames
(42.0350°N, 93.6200°W)
Time: 21:32:08
(UTC-05:00)

ISS - All Passes

Search period start: 30 August 2015 00:00
Search period end: 09 September 2015 00:00
Orbit: 399 x 401 km, 51.6° (Epoch: 30 August)

Date Brightness Start Highest point End Pass type
(mag) Time Alt. Az. Time Alt. Az. Time Alt. Az.
30 Aug - 09:49:54 10° SSW 09:52:56 38° SE 09:55:59 10° ENE daylight
30 Aug - 11:26:25 10° W 11:29:22 31° NNW 11:32:20 10° NE daylight
30 Aug - 13:04:29 10° NW 13:06:30 15° N 13:08:32 10° NE daylight
30 Aug - 14:41:15 10° NW 14:43:46 20° NNE 14:46:18 10° ENE daylight
30 Aug - 16:17:17 10° NW 16:20:33 86° NE 16:23:47 10° SE daylight
30 Aug - 17:55:32 10° WSW 17:56:31 11° SW 17:57:23 10° SW daylight
31 Aug - 08:57:06 10° S 08:59:30 20° SE 09:01:58 10° E daylight
31 Aug - 10:32:31 10° WSW 10:35:41 50° NNW 10:38:52 10° NE daylight
31 Aug - 12:10:24 10° NW 12:12:40 17° N 12:14:54 10° NNE daylight
31 Aug - 13:47:44 10° NNW 13:49:57 17° N 13:52:11 10° NE daylight
31 Aug - 15:23:46 10° NW 15:26:56 47° NNE 15:30:05 10° ESE daylight
31 Aug - 17:00:35 10° W 17:03:09 21° SW 17:05:39 10° S daylight
01 Sep - 08:05:55 10° SE 08:06:07 10° SE 08:06:28 10° SE daylight
01 Sep - 09:38:50 10° SW 09:42:05 88° SSE 09:45:21 10° NE daylight
01 Sep - 11:16:15 10° WNW 11:18:49 21° NNW 11:21:23 10° NE daylight
01 Sep - 12:54:04 10° NW 12:56:05 15° N 12:58:06 10° NE daylight
01 Sep - 14:30:19 10° NW 14:33:14 30° NNE 14:36:09 10° E daylight
01 Sep - 16:06:37 10° WNW 16:09:41 41° SW 16:12:45 10° SSE daylight
02 Sep - 08:45:27 10° SSW 08:48:33 44° SE 08:51:40 10° ENE daylight
02 Sep - 10:22:09 10° W 10:25:02 29° NNW 10:27:56 10° NE daylight
02 Sep - 12:00:12 10° NW 12:02:12 15° N 12:04:12 10° NE daylight
02 Sep - 13:36:51 10° NW 13:39:27 22° NNE 13:42:03 10° ENE daylight
02 Sep - 15:12:55 10° WNW 15:16:10 83° SW 15:19:25 10° SE daylight
03 Sep - 07:52:30 10° S 07:55:05 22° SE 07:57:43 10° E daylight
03 Sep - 09:28:11 10° WSW 09:31:19 44° NNW 09:34:27 10° NE daylight
03 Sep - 11:06:07 10° NW 11:08:19 17° N 11:10:30 10° NNE daylight
03 Sep - 12:43:21 10° NNW 12:45:37 17° N 12:47:54 10° NE daylight
03 Sep - 14:19:22 10° NW 14:22:34 53° NNE 14:25:44 10° ESE daylight
03 Sep - 15:56:21 10° W 15:58:43 18° SW 16:01:01 10° S daylight
04 Sep - 07:00:30 10° SSE 07:01:40 12° SE 07:02:58 10° ESE daylight
04 Sep - 08:34:26 10° WSW 08:37:40 81° NW 08:40:56 10° NE daylight
04 Sep - 10:11:57 10° WNW 10:14:27 20° NNW 10:16:57 10° NE daylight
04 Sep - 11:49:42 10° NW 11:51:44 15° N 11:53:47 10° NE daylight
04 Sep - 13:25:52 10° NW 13:28:51 32° NNE 13:31:50 10° E daylight
04 Sep - 15:02:14 10° WNW 15:05:16 35° SW 15:08:15 10° SSE daylight
05 Sep - 07:40:56 10° SW 07:44:06 51° SE 07:47:16 10° ENE daylight
05 Sep - 09:17:49 10° W 09:20:39 27° NNW 09:23:28 10° NE daylight
05 Sep - 10:55:50 10° NW 10:57:50 15° N 10:59:49 10° NE daylight
05 Sep - 12:32:24 10° NW 12:35:04 23° NNE 12:37:44 10° ENE daylight
05 Sep - 14:08:29 10° WNW 14:11:44 72° SW 14:14:57 10° SE daylight
06 Sep - 06:47:52 10° SSW 06:50:36 26° SE 06:53:22 10° ENE daylight
06 Sep - 08:23:47 10° W 08:26:53 40° NNW 08:29:59 10° NE daylight
06 Sep - 10:01:46 10° NW 10:03:55 16° N 10:06:03 10° NNE daylight
06 Sep - 11:38:53 10° NNW 11:41:12 18° NNE 11:43:34 10° ENE daylight
06 Sep - 13:14:53 10° NW 13:18:06 60° NNE 13:21:19 10° ESE daylight
06 Sep - 14:52:04 10° W 14:54:13 16° SW 14:56:17 10° S daylight
07 Sep - 05:55:31 10° SSE 05:57:09 13° SE 05:58:53 10° E visible
07 Sep - 07:29:58 10° WSW 07:33:12 71° NNW 07:36:27 10° NE daylight
07 Sep - 09:07:35 10° WNW 09:10:02 19° NNW 09:12:28 10° NE daylight
07 Sep - 10:45:14 10° NNW 10:47:18 16° N 10:49:24 10° NE daylight
07 Sep - 12:21:22 10° NW 12:24:23 35° NNE 12:27:26 10° E daylight
07 Sep - 13:57:49 10° WNW 14:00:45 31° SW 14:03:39 10° SSE daylight
08 Sep - 06:36:24 10° SW 06:39:35 59° SE 06:42:48 10° ENE daylight
08 Sep - 08:13:25 10° WNW 08:16:11 25° NNW 08:18:56 10° NE daylight
08 Sep - 09:51:24 10° NW 09:53:23 15° N 09:55:22 10° NE daylight
08 Sep - 11:27:52 10° NW 11:30:36 24° NNE 11:33:20 10° ENE daylight
08 Sep - 13:04:00 10° WNW 13:07:12 62° SW 13:10:25 10° SE daylight
